West Paducah, KY

11:27 AM CDT on August 24, 2016 (GMT -0500)
Barkley Regional

Weather History for KPAH - September, 2013

Change the Weather History Date:

Sunday, September 29, 2013

  Actual Average Record
Temperature  
Mean Temperature 67 °F 64 °F  
Max Temperature 70 °F 77 °F 98 °F (1953)
Min Temperature 64 °F 52 °F 38 °F (1942)
Degree Days  
Heating Degree Days 0 4  
Month to date heating degree days 5 33  
Since 1 July heating degree days 5 34  
Cooling Degree Days 2 3  
Month to date cooling degree days 231 184  
Year to date cooling degree days 1405 1497  
Growing Degree Days 15 (Base 50)    
Moisture  
Dew Point 62 °F    
Average Humidity 80    
Maximum Humidity 93    
Minimum Humidity 66    
Precipitation  
Precipitation 1.28 in 0.14 in 1.30 in (1955)
Month to date precipitation 3.10 3.61  
Year to date precipitation 43.87 36.09  
Snow  
Snow 0.00 in 0.00 in 0.00 in (2002)
Month to date snowfall 0.0 0.0  
Since 1 July snowfall 0.0 0.0  
Since 1 September snowfall 0.0 0.0  
Snow Depth 0.00 in    
Sea Level Pressure  
Sea Level Pressure 30.02 in    
Wind  
Wind Speed 4 mph (South)    
Max Wind Speed 10 mph    
Max Gust Speed 13 mph    
Visibility 6 miles    
Events Rain    
T = Trace of Precipitation, MM = Missing Value Source: NWS Daily Summary

Daily Weather History Graph

Daily Weather History Graph

Search for Another Location

Airport or City:

Trip Planner

Search our weather history database for the weather conditions in past years. The results will help you decide how hot, cold, wet, or windy it might be!

Date:

Astronomy

Sep. 29, 2013 Rise Set
Actual Time 6:48 AM CDT 6:41 PM CDT
Civil Twilight 6:23 AM CDT 7:06 PM CDT
Nautical Twilight 5:52 AM CDT 7:36 PM CDT
Astronomical Twilight 5:22 AM CDT 8:07 PM CDT
Moon 1:36 AM CDT (9/29) 3:31 PM CDT (9/29)
Length of Visible Light 12h 43m
Length of Day
11h 52m
Waning Crescent, 27% of the Moon is Illuminated
Sep 29
Waning Crescent
Oct 4
New
Oct 11
First Quarter
Oct 18
Full
Oct 26
Last Quarter

Hourly Weather History & Observations

Time (CDT) Temp. Dew Point Humidity Pressure Visibility Wind Dir Wind Speed Gust Speed Precip Events Conditions
12:53 AM 70.0 °F 57.0 °F 63% 30.01 in 10.0 mi South 8.1 mph - 0.01 in   Clear
1:53 AM 69.1 °F 57.0 °F 65% 30.01 in 10.0 mi South 5.8 mph - N/A   Overcast
2:53 AM 69.1 °F 57.0 °F 65% 30.00 in 10.0 mi South 5.8 mph - N/A   Overcast
3:53 AM 69.1 °F 57.9 °F 68% 29.99 in 10.0 mi Variable 4.6 mph - N/A   Overcast
4:53 AM 69.1 °F 57.9 °F 68% 30.00 in 10.0 mi SSW 6.9 mph - N/A   Overcast
5:53 AM 66.0 °F 60.1 °F 81% 30.02 in 2.0 mi West 6.9 mph - 0.02 in Rain Heavy Rain
6:01 AM 64.4 °F 60.8 °F 88% 30.04 in 1.0 mi West 5.8 mph - 0.10 in Rain Heavy Rain
6:17 AM 64.4 °F 60.8 °F 88% 30.04 in 2.0 mi Calm Calm - 0.23 in Rain Rain
6:34 AM 64.4 °F 60.8 °F 88% 30.04 in 8.0 mi Calm Calm - 0.28 in Rain Light Rain
6:53 AM 64.0 °F 61.0 °F 90% 30.03 in 7.0 mi Calm Calm - 0.28 in Rain Light Rain
7:22 AM 64.4 °F 62.6 °F 94% 30.04 in 4.0 mi Calm Calm - 0.04 in Rain Rain
7:31 AM 64.4 °F 62.6 °F 94% 30.05 in 2.5 mi Calm Calm - 0.06 in Rain Rain
7:34 AM 64.4 °F 62.6 °F 94% 30.05 in 1.8 mi Calm Calm - 0.09 in Rain Heavy Rain
7:41 AM 64.4 °F 62.6 °F 94% 30.05 in 1.2 mi Calm Calm - 0.18 in Rain Heavy Rain
7:49 AM 64.4 °F 62.6 °F 94% 30.05 in 1.2 mi Calm Calm - 0.25 in Rain Heavy Rain
7:53 AM 64.0 °F 62.1 °F 93% 30.04 in 1.5 mi Calm Calm - 0.28 in Rain Heavy Rain
8:10 AM 64.4 °F 62.6 °F 94% 30.05 in 2.0 mi SSE 3.5 mph - 0.06 in Rain Rain
8:12 AM 64.4 °F 62.6 °F 94% 30.05 in 1.8 mi SSE 3.5 mph - 0.07 in Rain Heavy Rain
8:26 AM 64.4 °F 62.6 °F 94% 30.05 in 2.0 mi SSE 3.5 mph - 0.16 in Rain Rain
8:53 AM 64.0 °F 62.1 °F 93% 30.04 in 4.0 mi SSE 5.8 mph - 0.22 in Rain Light Rain
8:56 AM 64.4 °F 62.6 °F 94% 30.05 in 4.0 mi SSE 4.6 mph - 0.00 in Rain Light Rain
9:04 AM 64.4 °F 62.6 °F 94% 30.05 in 4.0 mi South 4.6 mph - 0.00 in Rain Light Rain
9:12 AM 64.4 °F 62.6 °F 94% 30.05 in 2.5 mi South 5.8 mph - 0.01 in Rain Rain
9:28 AM 64.4 °F 62.6 °F 94% 30.05 in 2.5 mi South 6.9 mph - 0.07 in Rain Rain
9:39 AM 64.4 °F 62.6 °F 94% 30.05 in 1.8 mi South 6.9 mph - 0.11 in Rain Heavy Rain
9:53 AM 64.0 °F 62.1 °F 93% 30.05 in 1.0 mi SSE 5.8 mph - 0.32 in Rain Heavy Rain
10:11 AM 64.4 °F 62.6 °F 94% 30.05 in 2.5 mi South 4.6 mph - 0.08 in Rain Rain
10:27 AM 64.4 °F 62.6 °F 94% 30.05 in 3.0 mi SSE 4.6 mph - 0.12 in Rain Light Rain
10:36 AM 64.4 °F 62.6 °F 94% 30.05 in 5.0 mi South 5.8 mph - 0.13 in Rain Light Rain
10:53 AM 64.9 °F 62.1 °F 90% 30.05 in 6.0 mi South 4.6 mph - 0.14 in Rain Light Rain
11:53 AM 64.9 °F 62.1 °F 90% 30.04 in 10.0 mi South 5.8 mph - 0.02 in Rain Light Rain
12:53 PM 66.0 °F 62.1 °F 87% 30.02 in 10.0 mi South 4.6 mph - 0.00 in   Overcast
1:53 PM 66.0 °F 62.1 °F 87% 30.00 in 9.0 mi Variable 5.8 mph - N/A   Overcast
2:53 PM 66.0 °F 62.1 °F 87% 29.99 in 5.0 mi South 4.6 mph - N/A   Overcast
3:53 PM 66.0 °F 62.1 °F 87% 29.98 in 6.0 mi South 4.6 mph - N/A   Overcast
4:53 PM 64.9 °F 62.1 °F 90% 29.99 in 7.0 mi SSE 5.8 mph - N/A   Overcast
5:53 PM 64.9 °F 62.1 °F 90% 29.99 in 10.0 mi South 6.9 mph - N/A   Overcast
6:53 PM 64.9 °F 61.0 °F 87% 29.99 in 10.0 mi SSE 5.8 mph - N/A   Overcast
7:53 PM 64.0 °F 62.1 °F 93% 29.99 in 10.0 mi South 3.5 mph - N/A   Overcast
8:53 PM 64.9 °F 62.1 °F 90% 29.99 in 8.0 mi Calm Calm - N/A   Overcast
9:53 PM 64.9 °F 62.1 °F 90% 29.99 in 4.0 mi Calm Calm - N/A   Overcast
10:43 PM 64.4 °F 62.6 °F 94% 29.99 in 6.0 mi Calm Calm - N/A   Overcast
10:53 PM 64.9 °F 62.1 °F 90% 29.98 in 6.0 mi Calm Calm - N/A   Overcast
11:15 PM 64.4 °F 62.6 °F 94% 29.99 in 7.0 mi Calm Calm - N/A   Overcast
11:53 PM 64.9 °F 63.0 °F 93% 29.98 in 7.0 mi Calm Calm - N/A   Overcast